Location: Bronschhofen
(47.4788°N, 9.0353°E)
Time: 21:22:02
(UTC+00:00)

Cosmos 1818 - Pass Details

Date: 20 May 2022
Orbit: 774 x 799 km, 65.0° (Epoch: 01 July)

Event Time Altitude Azimuth Distance (km) Brightness Sun altitude
Rises 00:02:41 0° 322° (NW) 3,314 7.4 -21.9°
Reaches altitude 10° 00:05:07 10° 322° (NW) 2,379 6.6 -21.8°
Maximum altitude 00:10:36 86° 235° (SW) 805 3.5 -21.6°
Enters shadow 00:12:53 37° 148° (SSE) 1,229 4.2 -21.6°
